Time,TemperatureF,DewpointF,PressureIn,WindDirection,WindDirectionDegrees,WindSpeedMPH,WindSpeedGustMPH,Humidity,HourlyPrecipIn,Conditions,Clouds,dailyrainin,SolarRadiationWatts/m^2,SoftwareType,DateUTC
2013-02-11 00:00:00,49.5,28.5,30.12,ESE,109,0.0,0.0,44,0.00,,,0.00,0,WeatherHawk,2013-02-11 05:00:00,
2013-02-11 00:05:00,49.6,28.6,30.11,ENE,76,1.0,0.0,44,0.00,,,0.00,0,WeatherHawk,2013-02-11 05:05:00,
2013-02-11 00:06:00,49.6,28.6,30.11,SSE,151,2.0,0.0,44,0.00,,,0.00,0,WeatherHawk,2013-02-11 05:06:00,
2013-02-11 00:11:00,49.5,28.5,30.12,SSE,168,1.0,0.0,44,0.00,,,0.00,2,WeatherHawk,2013-02-11 05:11:00,
2013-02-11 00:16:00,49.7,28.6,30.11,SSE,156,3.0,0.0,44,0.00,,,0.00,2,WeatherHawk,2013-02-11 05:16:00,
2013-02-11 00:21:00,50.1,28.5,30.11,ESE,120,5.0,0.0,43,0.00,,,0.00,2,WeatherHawk,2013-02-11 05:21:00,
2013-02-11 00:26:00,49.8,28.2,30.11,SSE,150,3.0,0.0,43,0.00,,,0.00,1,WeatherHawk,2013-02-11 05:26:00,
2013-02-11 00:31:00,50.2,28.5,30.10,SE,138,0.0,0.0,43,0.00,,,0.00,0,WeatherHawk,2013-02-11 05:31:00,
2013-02-11 00:37:00,50.3,28.6,30.10,SE,143,3.0,0.0,43,0.00,,,0.00,1,WeatherHawk,2013-02-11 05:37:00,
2013-02-11 00:42:00,50.0,28.4,30.10,SE,129,4.0,0.0,43,0.00,,,0.00,0,WeatherHawk,2013-02-11 05:42:00,
2013-02-11 00:47:00,49.9,28.8,30.11,ESE,120,2.0,0.0,44,0.00,,,0.00,3,WeatherHawk,2013-02-11 05:47:00,
2013-02-11 00:52:00,49.8,28.8,30.10,SE,144,3.0,0.0,44,0.00,,,0.00,0,WeatherHawk,2013-02-11 05:52:00,
2013-02-11 00:58:00,50.3,29.2,30.10,ESE,120,5.0,0.0,44,0.00,,,0.00,0,WeatherHawk,2013-02-11 05:58:00,
2013-02-11 01:03:00,50.1,29.6,30.10,SE,142,0.0,0.0,45,0.00,,,0.00,0,WeatherHawk,2013-02-11 06:03:00,
2013-02-11 01:08:00,50.1,29.0,30.09,SSE,157,2.0,0.0,44,0.00,,,0.00,0,WeatherHawk,2013-02-11 06:08:00,
2013-02-11 01:13:00,50.2,29.1,30.09,SE,139,2.0,0.0,44,0.00,,,0.00,0,WeatherHawk,2013-02-11 06:13:00,
2013-02-11 01:18:00,50.3,28.7,30.09,SSW,195,0.0,0.0,43,0.00,,,0.00,0,WeatherHawk,2013-02-11 06:18:00,
2013-02-11 01:23:00,50.3,28.7,30.09,ESE,110,2.0,0.0,43,0.00,,,0.00,0,WeatherHawk,2013-02-11 06:23:00,
2013-02-11 01:28:00,50.9,29.2,30.09,East,100,3.0,0.0,43,0.00,,,0.00,1,WeatherHawk,2013-02-11 06:28:00,
2013-02-11 01:33:00,50.4,28.7,30.10,South,177,0.0,0.0,43,0.00,,,0.00,0,WeatherHawk,2013-02-11 06:33:00,
2013-02-11 01:38:00,50.4,28.8,30.10,SSE,156,4.0,0.0,43,0.00,,,0.00,0,WeatherHawk,2013-02-11 06:38:00,
2013-02-11 01:43:00,50.6,29.0,30.10,ESE,120,4.0,0.0,43,0.00,,,0.00,0,WeatherHawk,2013-02-11 06:43:00,
2013-02-11 01:48:00,50.4,28.8,30.09,South,185,2.0,0.0,43,0.00,,,0.00,1,WeatherHawk,2013-02-11 06:48:00,
2013-02-11 01:53:00,50.3,29.2,30.10,SSW,212,0.0,0.0,44,0.00,,,0.00,0,WeatherHawk,2013-02-11 06:53:00,
2013-02-11 01:58:00,50.1,29.0,30.08,SW,234,0.0,0.0,44,0.00,,,0.00,0,WeatherHawk,2013-02-11 06:58:00,
2013-02-11 02:03:00,50.5,29.4,30.09,South,169,4.0,0.0,44,0.00,,,0.00,1,WeatherHawk,2013-02-11 07:03:00,
2013-02-11 02:08:00,51.7,29.9,30.08,SE,142,6.0,0.0,43,0.00,,,0.00,0,WeatherHawk,2013-02-11 07:08:00,
2013-02-11 02:13:00,50.9,29.8,30.10,SSE,160,0.0,0.0,44,0.00,,,0.00,1,WeatherHawk,2013-02-11 07:13:00,
2013-02-11 02:18:00,51.3,29.0,30.09,SSE,163,4.0,0.0,42,0.00,,,0.00,0,WeatherHawk,2013-02-11 07:18:00,
2013-02-11 02:24:00,51.2,29.5,30.09,South,174,3.0,0.0,43,0.00,,,0.00,0,WeatherHawk,2013-02-11 07:24:00,
2013-02-11 02:29:00,51.8,29.4,30.09,SSE,159,5.0,0.0,42,0.00,,,0.00,0,WeatherHawk,2013-02-11 07:29:00,
2013-02-11 02:34:00,52.3,29.9,30.09,SSE,156,4.0,0.0,42,0.00,,,0.00,0,WeatherHawk,2013-02-11 07:34:00,
2013-02-11 02:39:00,52.4,29.4,30.08,NNE,23,1.0,0.0,41,0.00,,,0.00,0,WeatherHawk,2013-02-11 07:39:00,
2013-02-11 02:44:00,52.7,29.0,30.09,SSE,151,4.0,0.0,40,0.00,,,0.00,0,WeatherHawk,2013-02-11 07:44:00,
2013-02-11 02:49:00,52.4,28.8,30.09,SSW,211,3.0,0.0,40,0.00,,,0.00,0,WeatherHawk,2013-02-11 07:49:00,
2013-02-11 02:54:00,52.6,29.0,30.08,SSE,168,1.0,0.0,40,0.00,,,0.00,0,WeatherHawk,2013-02-11 07:54:00,
2013-02-11 02:59:00,52.3,28.7,30.08,South,188,2.0,0.0,40,0.00,,,0.00,0,WeatherHawk,2013-02-11 07:59:00,
2013-02-11 03:04:00,52.8,29.1,30.08,South,173,6.0,0.0,40,0.00,,,0.00,1,WeatherHawk,2013-02-11 08:04:00,
2013-02-11 03:09:00,52.8,28.5,30.07,ESE,102,0.0,0.0,39,0.00,,,0.00,0,WeatherHawk,2013-02-11 08:09:00,
2013-02-11 03:14:00,52.8,29.2,30.08,SSE,163,2.0,0.0,40,0.00,,,0.00,1,WeatherHawk,2013-02-11 08:14:00,
2013-02-11 03:19:00,52.7,29.1,30.08,SSW,210,0.0,0.0,40,0.00,,,0.00,0,WeatherHawk,2013-02-11 08:19:00,
2013-02-11 03:24:00,52.8,29.2,30.07,SSE,151,4.0,0.0,40,0.00,,,0.00,1,WeatherHawk,2013-02-11 08:24:00,
2013-02-11 03:29:00,52.6,29.0,30.07,SSE,154,1.0,0.0,40,0.00,,,0.00,1,WeatherHawk,2013-02-11 08:29:00,
2013-02-11 03:34:00,52.9,29.3,30.07,SSE,147,6.0,0.0,40,0.00,,,0.00,0,WeatherHawk,2013-02-11 08:34:00,
2013-02-11 03:39:00,52.7,29.6,30.07,South,171,5.0,0.0,41,0.00,,,0.00,0,WeatherHawk,2013-02-11 08:39:00,
2013-02-11 03:44:00,52.2,29.3,30.07,SSE,161,5.0,0.0,41,0.00,,,0.00,0,WeatherHawk,2013-02-11 08:44:00,
2013-02-11 03:49:00,51.9,30.1,30.08,South,191,5.0,0.0,43,0.00,,,0.00,1,WeatherHawk,2013-02-11 08:49:00,
2013-02-11 03:54:00,52.4,29.9,30.07,SSE,156,2.0,0.0,42,0.00,,,0.00,0,WeatherHawk,2013-02-11 08:54:00,
2013-02-11 03:59:00,52.8,30.3,30.07,SSE,165,5.0,0.0,42,0.00,,,0.00,0,WeatherHawk,2013-02-11 08:59:00,
2013-02-11 04:04:00,52.5,30.1,30.06,SW,215,5.0,0.0,42,0.00,,,0.00,0,WeatherHawk,2013-02-11 09:04:00,
2013-02-11 04:09:00,53.3,30.8,30.07,SE,142,6.0,0.0,42,0.00,,,0.00,0,WeatherHawk,2013-02-11 09:09:00,
2013-02-11 04:14:00,52.8,30.3,30.06,SSE,154,3.0,0.0,42,0.00,,,0.00,0,WeatherHawk,2013-02-11 09:14:00,
2013-02-11 04:19:00,53.3,30.8,30.06,SSE,162,6.0,0.0,42,0.00,,,0.00,0,WeatherHawk,2013-02-11 09:19:00,
2013-02-11 04:24:00,53.0,30.0,30.07,SSE,161,5.0,0.0,41,0.00,,,0.00,0,WeatherHawk,2013-02-11 09:24:00,
2013-02-11 04:29:00,53.2,30.7,30.07,SSE,155,3.0,0.0,42,0.00,,,0.00,2,WeatherHawk,2013-02-11 09:29:00,
2013-02-11 04:34:00,53.1,30.6,30.07,South,176,5.0,0.0,42,0.00,,,0.00,0,WeatherHawk,2013-02-11 09:34:00,
2013-02-11 04:39:00,53.5,30.9,30.08,SE,131,5.0,0.0,42,0.00,,,0.00,0,WeatherHawk,2013-02-11 09:39:00,
2013-02-11 04:44:00,53.4,30.9,30.07,SSE,150,2.0,0.0,42,0.00,,,0.00,0,WeatherHawk,2013-02-11 09:44:00,
2013-02-11 04:49:00,53.2,30.8,30.06,SSW,192,5.0,0.0,42,0.00,,,0.00,0,WeatherHawk,2013-02-11 09:49:00,
2013-02-11 04:54:00,53.8,31.2,30.07,SSW,192,8.0,0.0,42,0.00,,,0.00,0,WeatherHawk,2013-02-11 09:54:00,
2013-02-11 04:59:00,53.3,31.4,30.07,SSW,196,5.0,0.0,43,0.00,,,0.00,0,WeatherHawk,2013-02-11 09:59:00,
2013-02-11 05:04:00,53.4,31.5,30.07,SSE,165,8.0,0.0,43,0.00,,,0.00,1,WeatherHawk,2013-02-11 10:04:00,
2013-02-11 05:09:00,53.5,31.5,30.07,SSE,153,7.0,0.0,43,0.00,,,0.00,0,WeatherHawk,2013-02-11 10:09:00,
2013-02-11 05:14:00,53.5,31.0,30.07,NNE,21,6.0,0.0,42,0.00,,,0.00,0,WeatherHawk,2013-02-11 10:14:00,
2013-02-11 05:19:00,53.8,31.9,30.06,SSE,159,9.0,0.0,43,0.00,,,0.00,0,WeatherHawk,2013-02-11 10:19:00,
2013-02-11 05:24:00,53.9,32.0,30.06,South,186,5.0,0.0,43,0.00,,,0.00,1,WeatherHawk,2013-02-11 10:24:00,
2013-02-11 05:29:00,54.2,32.7,30.06,South,177,8.0,0.0,44,0.00,,,0.00,0,WeatherHawk,2013-02-11 10:29:00,
2013-02-11 05:34:00,54.3,33.4,30.06,South,186,8.0,0.0,45,0.00,,,0.00,0,WeatherHawk,2013-02-11 10:34:00,
2013-02-11 05:39:00,54.1,33.2,30.07,SE,144,6.0,0.0,45,0.00,,,0.00,1,WeatherHawk,2013-02-11 10:39:00,
2013-02-11 05:44:00,53.9,33.0,30.07,SSE,151,5.0,0.0,45,0.00,,,0.00,0,WeatherHawk,2013-02-11 10:44:00,
2013-02-11 05:49:00,53.5,33.2,30.07,SW,225,6.0,0.0,46,0.00,,,0.00,0,WeatherHawk,2013-02-11 10:49:00,
2013-02-11 05:54:00,54.0,34.3,30.07,South,180,6.0,0.0,47,0.00,,,0.00,0,WeatherHawk,2013-02-11 10:54:00,
2013-02-11 05:59:00,54.2,34.4,30.07,SSE,156,7.0,0.0,47,0.00,,,0.00,1,WeatherHawk,2013-02-11 10:59:00,
2013-02-11 06:04:00,53.8,34.5,30.08,SSE,165,5.0,0.0,48,0.00,,,0.00,0,WeatherHawk,2013-02-11 11:04:00,
2013-02-11 06:09:00,54.7,35.4,30.07,SSE,162,9.0,0.0,48,0.00,,,0.00,1,WeatherHawk,2013-02-11 11:09:00,
2013-02-11 06:14:00,54.0,34.8,30.07,SSE,164,7.0,0.0,48,0.00,,,0.00,0,WeatherHawk,2013-02-11 11:14:00,
2013-02-11 06:19:00,54.1,34.9,30.07,SSE,168,8.0,0.0,48,0.00,,,0.00,0,WeatherHawk,2013-02-11 11:19:00,
2013-02-11 06:24:00,54.3,35.0,30.06,South,179,6.0,0.0,48,0.00,,,0.00,0,WeatherHawk,2013-02-11 11:24:00,
2013-02-11 06:29:00,53.7,34.5,30.06,SSE,148,6.0,0.0,48,0.00,,,0.00,3,WeatherHawk,2013-02-11 11:29:00,
2013-02-11 06:34:00,54.0,35.8,30.06,NW,324,4.0,0.0,50,0.00,,,0.00,0,WeatherHawk,2013-02-11 11:34:00,
2013-02-11 06:39:00,53.4,35.2,30.07,SE,142,4.0,0.0,50,0.00,,,0.00,0,WeatherHawk,2013-02-11 11:39:00,
2013-02-11 06:44:00,53.9,36.2,30.07,SE,125,6.0,0.0,51,0.00,,,0.00,1,WeatherHawk,2013-02-11 11:44:00,
2013-02-11 06:49:00,53.7,36.0,30.07,South,181,6.0,0.0,51,0.00,,,0.00,1,WeatherHawk,2013-02-11 11:49:00,
2013-02-11 06:54:00,54.0,36.3,30.07,South,181,9.0,0.0,51,0.00,,,0.00,1,WeatherHawk,2013-02-11 11:54:00,
2013-02-11 06:59:00,53.9,36.2,30.07,South,173,7.0,0.0,51,0.00,,,0.00,0,WeatherHawk,2013-02-11 11:59:00,
2013-02-11 07:04:00,53.7,36.0,30.08,SE,132,6.0,0.0,51,0.00,,,0.00,1,WeatherHawk,2013-02-11 12:04:00,
2013-02-11 07:09:00,54.5,37.2,30.07,SE,132,6.0,0.0,52,0.00,,,0.00,0,WeatherHawk,2013-02-11 12:09:00,
2013-02-11 07:14:00,54.5,36.8,30.07,South,173,9.0,0.0,51,0.00,,,0.00,1,WeatherHawk,2013-02-11 12:14:00,
2013-02-11 07:19:00,54.2,37.0,30.07,SSE,163,8.0,0.0,52,0.00,,,0.00,1,WeatherHawk,2013-02-11 12:19:00,
2013-02-11 07:24:00,54.6,37.3,30.08,South,170,6.0,0.0,52,0.00,,,0.00,3,WeatherHawk,2013-02-11 12:24:00,
2013-02-11 07:29:00,54.3,37.1,30.07,SE,124,7.0,0.0,52,0.00,,,0.00,2,WeatherHawk,2013-02-11 12:29:00,
2013-02-11 07:34:00,54.9,38.1,30.07,South,183,7.0,0.0,53,0.00,,,0.00,3,WeatherHawk,2013-02-11 12:34:00,
2013-02-11 07:39:00,54.2,37.0,30.08,SSE,165,8.0,0.0,52,0.00,,,0.00,7,WeatherHawk,2013-02-11 12:39:00,
2013-02-11 07:44:00,54.5,37.2,30.08,SSE,167,6.0,0.0,52,0.00,,,0.00,15,WeatherHawk,2013-02-11 12:44:00,
2013-02-11 07:49:00,54.6,37.9,30.08,SSE,166,7.0,0.0,53,0.00,,,0.00,18,WeatherHawk,2013-02-11 12:49:00,
2013-02-11 07:54:00,54.3,37.5,30.08,SE,137,4.0,0.0,53,0.00,,,0.00,19,WeatherHawk,2013-02-11 12:54:00,
2013-02-11 07:59:00,54.5,38.2,30.09,SE,145,5.0,0.0,54,0.00,,,0.00,17,WeatherHawk,2013-02-11 12:59:00,
2013-02-11 08:04:00,54.4,38.1,30.09,South,177,6.0,0.0,54,0.00,,,0.00,17,WeatherHawk,2013-02-11 13:04:00,
2013-02-11 08:09:00,54.5,38.2,30.08,South,174,5.0,0.0,54,0.00,,,0.00,16,WeatherHawk,2013-02-11 13:09:00,
2013-02-11 08:14:00,54.8,38.0,30.08,South,172,5.0,0.0,53,0.00,,,0.00,21,WeatherHawk,2013-02-11 13:14:00,
2013-02-11 08:19:00,54.8,38.0,30.09,South,182,6.0,0.0,53,0.00,,,0.00,21,WeatherHawk,2013-02-11 13:19:00,
2013-02-11 08:24:00,55.0,38.7,30.08,SSW,209,5.0,0.0,54,0.00,,,0.00,22,WeatherHawk,2013-02-11 13:24:00,
2013-02-11 08:29:00,55.2,38.8,30.08,South,185,7.0,0.0,54,0.00,,,0.00,24,WeatherHawk,2013-02-11 13:29:00,
2013-02-11 08:34:00,55.4,38.5,30.08,SSE,159,7.0,0.0,53,0.00,,,0.00,24,WeatherHawk,2013-02-11 13:34:00,
2013-02-11 08:39:00,55.6,38.7,30.08,South,173,7.0,0.0,53,0.00,,,0.00,24,WeatherHawk,2013-02-11 13:39:00,
2013-02-11 08:44:00,55.9,39.0,30.08,South,181,7.0,0.0,53,0.00,,,0.00,112,WeatherHawk,2013-02-11 13:44:00,
2013-02-11 08:49:00,56.3,38.4,30.09,SSE,148,9.0,0.0,51,0.00,,,0.00,136,WeatherHawk,2013-02-11 13:49:00,
2013-02-11 08:54:00,57.2,36.6,30.08,SSW,193,10.0,0.0,46,0.00,,,0.00,155,WeatherHawk,2013-02-11 13:54:00,
2013-02-11 08:59:00,58.3,36.5,30.08,NNE,31,4.0,0.0,44,0.00,,,0.00,144,WeatherHawk,2013-02-11 13:59:00,
2013-02-11 09:04:00,57.6,35.9,30.07,South,171,4.0,0.0,44,0.00,,,0.00,118,WeatherHawk,2013-02-11 14:04:00,
2013-02-11 09:09:00,58.0,34.4,30.07,West,270,6.0,0.0,41,0.00,,,0.00,132,WeatherHawk,2013-02-11 14:09:00,
2013-02-11 09:14:00,58.5,34.9,30.08,ESE,106,8.0,0.0,41,0.00,,,0.00,244,WeatherHawk,2013-02-11 14:14:00,
2013-02-11 09:19:00,58.4,32.3,30.08,NE,46,7.0,0.0,37,0.00,,,0.00,234,WeatherHawk,2013-02-11 14:19:00,
2013-02-11 09:24:00,59.4,29.5,30.08,South,169,6.0,0.0,32,0.00,,,0.00,237,WeatherHawk,2013-02-11 14:24:00,
2013-02-11 09:29:00,58.8,24.0,30.08,SW,230,11.0,0.0,26,0.00,,,0.00,97,WeatherHawk,2013-02-11 14:29:00,
2013-02-11 09:34:00,58.8,24.0,30.08,West,279,7.0,0.0,26,0.00,,,0.00,126,WeatherHawk,2013-02-11 14:34:00,
2013-02-11 09:39:00,59.3,23.5,30.08,South,174,6.0,0.0,25,0.00,,,0.00,269,WeatherHawk,2013-02-11 14:39:00,
2013-02-11 09:44:00,59.9,19.9,30.07,WSW,252,7.0,0.0,21,0.00,,,0.00,298,WeatherHawk,2013-02-11 14:44:00,
2013-02-11 09:49:00,60.7,16.9,30.08,SW,233,10.0,0.0,18,0.00,,,0.00,320,WeatherHawk,2013-02-11 14:49:00,
2013-02-11 09:54:00,60.2,16.5,30.08,West,264,12.0,0.0,18,0.00,,,0.00,309,WeatherHawk,2013-02-11 14:54:00,
2013-02-11 09:59:00,61.1,14.6,30.07,NW,304,8.0,0.0,16,0.00,,,0.00,376,WeatherHawk,2013-02-11 14:59:00,
2013-02-11 10:04:00,60.3,10.9,30.07,SW,218,13.0,0.0,14,0.00,,,0.00,322,WeatherHawk,2013-02-11 15:04:00,
2013-02-11 10:09:00,60.1,10.7,30.08,WSW,240,15.0,0.0,14,0.00,,,0.00,366,WeatherHawk,2013-02-11 15:09:00,
2013-02-11 10:14:00,60.4,12.5,30.07,North,349,10.0,0.0,15,0.00,,,0.00,155,WeatherHawk,2013-02-11 15:14:00,
2013-02-11 10:19:00,60.9,8.0,30.07,SE,127,10.0,0.0,12,0.00,,,0.00,360,WeatherHawk,2013-02-11 15:19:00,
2013-02-11 10:24:00,60.8,9.7,30.06,West,261,6.0,0.0,13,0.00,,,0.00,351,WeatherHawk,2013-02-11 15:24:00,
2013-02-11 10:29:00,60.1,7.3,30.06,WSW,237,12.0,0.0,12,0.00,,,0.00,282,WeatherHawk,2013-02-11 15:29:00,
2013-02-11 10:34:00,60.5,11.1,30.07,NNW,341,7.0,0.0,14,0.00,,,0.00,287,WeatherHawk,2013-02-11 15:34:00,
2013-02-11 10:39:00,59.9,5.3,30.07,WSW,237,17.0,0.0,11,0.00,,,0.00,340,WeatherHawk,2013-02-11 15:39:00,
2013-02-11 10:44:00,60.7,3.8,30.08,NW,306,12.0,0.0,10,0.00,,,0.00,396,WeatherHawk,2013-02-11 15:44:00,
2013-02-11 10:49:00,59.4,0.6,30.07,West,267,11.0,0.0,9,0.00,,,0.00,292,WeatherHawk,2013-02-11 15:49:00,
2013-02-11 10:54:00,59.6,7.0,30.08,West,280,10.0,0.0,12,0.00,,,0.00,245,WeatherHawk,2013-02-11 15:54:00,
2013-02-11 10:59:00,60.1,1.1,30.08,WNW,286,14.0,0.0,9,0.00,,,0.00,315,WeatherHawk,2013-02-11 15:59:00,
2013-02-11 11:04:00,59.0,4.6,30.08,West,270,11.0,0.0,11,0.00,,,0.00,268,WeatherHawk,2013-02-11 16:04:00,
2013-02-11 11:09:00,59.1,8.4,30.08,WNW,290,8.0,0.0,13,0.00,,,0.00,200,WeatherHawk,2013-02-11 16:09:00,
2013-02-11 11:14:00,59.1,4.7,30.08,South,189,8.0,0.0,11,0.00,,,0.00,191,WeatherHawk,2013-02-11 16:14:00,
2013-02-11 11:19:00,59.3,2.7,30.08,NNW,340,10.0,0.0,10,0.00,,,0.00,175,WeatherHawk,2013-02-11 16:19:00,
2013-02-11 11:24:00,58.9,4.5,30.09,WSW,253,10.0,0.0,11,0.00,,,0.00,199,WeatherHawk,2013-02-11 16:24:00,
2013-02-11 11:29:00,58.8,2.4,30.09,SSE,165,10.0,0.0,10,0.00,,,0.00,144,WeatherHawk,2013-02-11 16:29:00,
2013-02-11 11:34:00,59.5,-1.8,30.09,SSE,168,8.0,0.0,8,0.00,,,0.00,231,WeatherHawk,2013-02-11 16:34:00,
2013-02-11 11:39:00,59.1,2.6,30.09,WSW,253,5.0,0.0,10,0.00,,,0.00,223,WeatherHawk,2013-02-11 16:39:00,
2013-02-11 11:44:00,58.8,0.1,30.09,SSE,158,24.0,0.0,9,0.00,,,0.00,196,WeatherHawk,2013-02-11 16:44:00,
2013-02-11 11:49:00,59.3,4.8,30.10,SSE,153,13.0,0.0,11,0.00,,,0.00,485,WeatherHawk,2013-02-11 16:49:00,
2013-02-11 11:54:00,62.9,5.5,30.09,SSW,210,7.0,0.0,10,0.00,,,0.00,510,WeatherHawk,2013-02-11 16:54:00,
2013-02-11 11:59:00,60.1,1.1,30.07,ESE,119,10.0,0.0,9,0.00,,,0.00,330,WeatherHawk,2013-02-11 16:59:00,
2013-02-11 12:04:00,60.6,1.5,30.09,WSW,252,9.0,0.0,9,0.00,,,0.00,454,WeatherHawk,2013-02-11 17:04:00,
2013-02-11 12:09:00,60.3,-4.1,30.07,SSW,211,18.0,0.0,7,0.00,,,0.00,553,WeatherHawk,2013-02-11 17:09:00,
2013-02-11 12:14:00,60.0,-7.4,30.07,South,179,22.0,0.0,6,0.00,,,0.00,566,WeatherHawk,2013-02-11 17:14:00,
2013-02-11 12:19:00,60.7,1.6,30.08,SE,139,14.0,0.0,9,0.00,,,0.00,443,WeatherHawk,2013-02-11 17:19:00,
2013-02-11 12:24:00,60.6,3.8,30.08,South,185,9.0,0.0,10,0.00,,,0.00,369,WeatherHawk,2013-02-11 17:24:00,
2013-02-11 12:29:00,60.5,-3.9,30.08,SSW,209,7.0,0.0,7,0.00,,,0.00,311,WeatherHawk,2013-02-11 17:29:00,
2013-02-11 12:34:00,58.8,-5.2,30.07,SE,134,22.0,0.0,7,0.00,,,0.00,295,WeatherHawk,2013-02-11 17:34:00,
2013-02-11 12:39:00,59.3,-4.7,30.07,ESE,122,18.0,0.0,7,0.00,,,0.00,300,WeatherHawk,2013-02-11 17:39:00,
2013-02-11 12:44:00,60.3,-4.0,30.07,SSW,207,9.0,0.0,7,0.00,,,0.00,438,WeatherHawk,2013-02-11 17:44:00,
2013-02-11 12:49:00,59.5,-4.6,30.07,WNW,296,8.0,0.0,7,0.00,,,0.00,330,WeatherHawk,2013-02-11 17:49:00,
2013-02-11 12:54:00,60.4,-3.9,30.06,West,264,11.0,0.0,7,0.00,,,0.00,496,WeatherHawk,2013-02-11 17:54:00,
2013-02-11 12:59:00,60.5,-3.9,30.06,WNW,286,6.0,0.0,7,0.00,,,0.00,390,WeatherHawk,2013-02-11 17:59:00,
2013-02-11 13:04:00,59.2,-2.0,30.06,West,267,10.0,0.0,8,0.00,,,0.00,313,WeatherHawk,2013-02-11 18:04:00,
2013-02-11 13:09:00,59.8,0.9,30.06,South,171,8.0,0.0,9,0.00,,,0.00,320,WeatherHawk,2013-02-11 18:09:00,
2013-02-11 13:14:00,60.1,-1.4,30.06,SSW,205,12.0,0.0,8,0.00,,,0.00,338,WeatherHawk,2013-02-11 18:14:00,
2013-02-11 13:19:00,61.4,-0.4,30.05,WNW,287,6.0,0.0,8,0.00,,,0.00,477,WeatherHawk,2013-02-11 18:19:00,
2013-02-11 13:24:00,60.8,-0.9,30.05,SW,220,9.0,0.0,8,0.00,,,0.00,257,WeatherHawk,2013-02-11 18:24:00,
2013-02-11 13:29:00,61.5,-0.4,30.07,WSW,255,8.0,0.0,8,0.00,,,0.00,632,WeatherHawk,2013-02-11 18:29:00,
2013-02-11 13:34:00,61.0,-0.7,30.05,NE,49,9.0,0.0,8,0.00,,,0.00,381,WeatherHawk,2013-02-11 18:34:00,
2013-02-11 13:39:00,60.6,-1.0,30.06,South,189,13.0,0.0,8,0.00,,,0.00,431,WeatherHawk,2013-02-11 18:39:00,
2013-02-11 13:44:00,60.3,-1.3,30.06,WSW,253,8.0,0.0,8,0.00,,,0.00,341,WeatherHawk,2013-02-11 18:44:00,
2013-02-11 13:49:00,59.6,-1.7,30.05,West,260,10.0,0.0,8,0.00,,,0.00,311,WeatherHawk,2013-02-11 18:49:00,
2013-02-11 13:54:00,60.7,1.5,30.06,SSW,196,6.0,0.0,9,0.00,,,0.00,390,WeatherHawk,2013-02-11 18:54:00,
2013-02-11 13:59:00,59.4,0.6,30.07,ESE,108,9.0,0.0,9,0.00,,,0.00,332,WeatherHawk,2013-02-11 18:59:00,
2013-02-11 14:04:00,59.6,-1.8,30.07,West,262,9.0,0.0,8,0.00,,,0.00,307,WeatherHawk,2013-02-11 19:04:00,
2013-02-11 14:09:00,59.9,-1.6,30.07,WSW,244,7.0,0.0,8,0.00,,,0.00,293,WeatherHawk,2013-02-11 19:09:00,
2013-02-11 14:14:00,59.5,-1.8,30.07,WSW,252,9.0,0.0,8,0.00,,,0.00,269,WeatherHawk,2013-02-11 19:14:00,
2013-02-11 14:19:00,59.4,-1.9,30.07,SSE,150,7.0,0.0,8,0.00,,,0.00,253,WeatherHawk,2013-02-11 19:19:00,
2013-02-11 14:24:00,59.9,-1.6,30.07,NW,320,8.0,0.0,8,0.00,,,0.00,411,WeatherHawk,2013-02-11 19:24:00,
2013-02-11 14:29:00,59.1,-2.1,30.06,South,169,14.0,0.0,8,0.00,,,0.00,283,WeatherHawk,2013-02-11 19:29:00,
2013-02-11 14:34:00,58.6,-2.5,30.07,South,191,16.0,0.0,8,0.00,,,0.00,255,WeatherHawk,2013-02-11 19:34:00,
2013-02-11 14:39:00,59.2,-2.0,30.08,SSW,194,11.0,0.0,8,0.00,,,0.00,291,WeatherHawk,2013-02-11 19:39:00,
2013-02-11 14:44:00,58.8,-2.3,30.07,SSE,151,8.0,0.0,8,0.00,,,0.00,263,WeatherHawk,2013-02-11 19:44:00,
2013-02-11 14:49:00,58.6,-2.5,30.08,West,276,6.0,0.0,8,0.00,,,0.00,294,WeatherHawk,2013-02-11 19:49:00,
2013-02-11 14:54:00,58.6,-2.5,30.07,East,101,11.0,0.0,8,0.00,,,0.00,299,WeatherHawk,2013-02-11 19:54:00,
2013-02-11 14:59:00,58.2,-2.8,30.07,SW,229,7.0,0.0,8,0.00,,,0.00,217,WeatherHawk,2013-02-11 19:59:00,
2013-02-11 15:04:00,58.5,-5.3,30.08,South,183,4.0,0.0,7,0.00,,,0.00,195,WeatherHawk,2013-02-11 20:04:00,
2013-02-11 15:09:00,58.3,-2.7,30.08,NW,317,10.0,0.0,8,0.00,,,0.00,227,WeatherHawk,2013-02-11 20:09:00,
2013-02-11 15:14:00,58.4,-0.1,30.08,WNW,288,12.0,0.0,9,0.00,,,0.00,249,WeatherHawk,2013-02-11 20:14:00,
2013-02-11 15:19:00,57.3,-1.0,30.09,SSE,156,23.0,0.0,9,0.00,,,0.00,178,WeatherHawk,2013-02-11 20:19:00,
2013-02-11 15:24:00,57.9,-0.6,30.08,SSW,201,13.0,0.0,9,0.00,,,0.00,232,WeatherHawk,2013-02-11 20:24:00,
2013-02-11 15:29:00,57.9,-0.6,30.09,WSW,247,11.0,0.0,9,0.00,,,0.00,274,WeatherHawk,2013-02-11 20:29:00,
2013-02-11 15:34:00,58.5,-0.1,30.08,NW,325,11.0,0.0,9,0.00,,,0.00,269,WeatherHawk,2013-02-11 20:34:00,
2013-02-11 15:39:00,57.6,-0.8,30.09,East,88,12.0,0.0,9,0.00,,,0.00,179,WeatherHawk,2013-02-11 20:39:00,
2013-02-11 15:44:00,58.1,-0.4,30.08,WSW,254,9.0,0.0,9,0.00,,,0.00,240,WeatherHawk,2013-02-11 20:44:00,
2013-02-11 15:49:00,57.6,-0.8,30.08,WSW,245,6.0,0.0,9,0.00,,,0.00,180,WeatherHawk,2013-02-11 20:49:00,
2013-02-11 15:54:00,58.2,-2.8,30.07,SSW,204,6.0,0.0,8,0.00,,,0.00,222,WeatherHawk,2013-02-11 20:54:00,
2013-02-11 15:59:00,58.7,-2.4,30.07,SSW,211,5.0,0.0,8,0.00,,,0.00,350,WeatherHawk,2013-02-11 20:59:00,
2013-02-11 16:04:00,57.7,-0.7,30.07,SE,130,14.0,0.0,9,0.00,,,0.00,146,WeatherHawk,2013-02-11 21:04:00,
2013-02-11 16:09:00,56.9,-1.3,30.07,West,259,8.0,0.0,9,0.00,,,0.00,164,WeatherHawk,2013-02-11 21:09:00,
2013-02-11 16:14:00,56.7,-1.5,30.08,SW,233,15.0,0.0,9,0.00,,,0.00,132,WeatherHawk,2013-02-11 21:14:00,
2013-02-11 16:19:00,56.9,-1.3,30.08,SW,230,12.0,0.0,9,0.00,,,0.00,224,WeatherHawk,2013-02-11 21:19:00,
2013-02-11 16:24:00,56.9,-1.3,30.08,NW,312,8.0,0.0,9,0.00,,,0.00,198,WeatherHawk,2013-02-11 21:24:00,
2013-02-11 16:29:00,58.2,-0.4,30.08,WSW,250,7.0,0.0,9,0.00,,,0.00,226,WeatherHawk,2013-02-11 21:29:00,
2013-02-11 16:34:00,58.1,-0.4,30.09,South,188,4.0,0.0,9,0.00,,,0.00,216,WeatherHawk,2013-02-11 21:34:00,
2013-02-11 16:39:00,56.6,-1.6,30.08,SSW,195,9.0,0.0,9,0.00,,,0.00,84,WeatherHawk,2013-02-11 21:39:00,
2013-02-11 16:44:00,56.3,-4.2,30.09,NW,322,6.0,0.0,8,0.00,,,0.00,85,WeatherHawk,2013-02-11 21:44:00,
2013-02-11 16:49:00,55.9,-4.5,30.10,SSE,163,15.0,0.0,8,0.00,,,0.00,82,WeatherHawk,2013-02-11 21:49:00,
2013-02-11 16:54:00,56.4,-4.2,30.10,SSW,199,9.0,0.0,8,0.00,,,0.00,157,WeatherHawk,2013-02-11 21:54:00,
2013-02-11 16:59:00,56.3,-1.8,30.10,West,266,11.0,0.0,9,0.00,,,0.00,139,WeatherHawk,2013-02-11 21:59:00,
2013-02-11 17:04:00,56.1,-1.9,30.09,West,267,10.0,0.0,9,0.00,,,0.00,115,WeatherHawk,2013-02-11 22:04:00,
2013-02-11 17:09:00,55.5,-4.8,30.10,West,277,7.0,0.0,8,0.00,,,0.00,53,WeatherHawk,2013-02-11 22:09:00,
2013-02-11 17:14:00,55.9,-2.1,30.10,SW,214,13.0,0.0,9,0.00,,,0.00,128,WeatherHawk,2013-02-11 22:14:00,
2013-02-11 17:19:00,55.9,-4.5,30.10,NW,304,6.0,0.0,8,0.00,,,0.00,128,WeatherHawk,2013-02-11 22:19:00,
2013-02-11 17:24:00,55.4,-4.9,30.10,West,267,9.0,0.0,8,0.00,,,0.00,98,WeatherHawk,2013-02-11 22:24:00,
2013-02-11 17:29:00,55.4,-4.9,30.10,SW,217,10.0,0.0,8,0.00,,,0.00,80,WeatherHawk,2013-02-11 22:29:00,
2013-02-11 17:34:00,55.1,-5.1,30.11,West,272,7.0,0.0,8,0.00,,,0.00,69,WeatherHawk,2013-02-11 22:34:00,
2013-02-11 17:39:00,54.9,-5.3,30.11,SW,224,5.0,0.0,8,0.00,,,0.00,55,WeatherHawk,2013-02-11 22:39:00,
2013-02-11 17:44:00,54.6,-8.3,30.12,WSW,248,5.0,0.0,7,0.00,,,0.00,47,WeatherHawk,2013-02-11 22:44:00,
2013-02-11 17:49:00,54.4,-8.4,30.12,NNW,331,5.0,0.0,7,0.00,,,0.00,33,WeatherHawk,2013-02-11 22:49:00,
2013-02-11 17:54:00,54.2,0.8,30.12,WNW,298,3.0,0.0,11,0.00,,,0.00,21,WeatherHawk,2013-02-11 22:54:00,
2013-02-11 17:59:00,53.8,-1.5,30.13,South,183,8.0,0.0,10,0.00,,,0.00,7,WeatherHawk,2013-02-11 22:59:00,
2013-02-11 18:04:00,53.1,-6.6,30.12,WSW,253,4.0,0.0,8,0.00,,,0.00,6,WeatherHawk,2013-02-11 23:04:00,
2013-02-11 18:09:00,52.9,-9.5,30.14,SW,221,5.0,0.0,7,0.00,,,0.00,4,WeatherHawk,2013-02-11 23:09:00,
2013-02-11 18:14:00,52.6,-0.4,30.15,SSW,209,4.0,0.0,11,0.00,,,0.00,1,WeatherHawk,2013-02-11 23:14:00,
2013-02-11 18:19:00,52.0,-5.0,30.15,WNW,287,3.0,0.0,9,0.00,,,0.00,1,WeatherHawk,2013-02-11 23:19:00,
2013-02-11 18:24:00,51.8,-5.2,30.15,WNW,290,4.0,0.0,9,0.00,,,0.00,1,WeatherHawk,2013-02-11 23:24:00,
2013-02-11 18:29:00,51.6,-1.2,30.17,WSW,257,4.0,0.0,11,0.00,,,0.00,0,WeatherHawk,2013-02-11 23:29:00,
2013-02-11 18:34:00,51.2,-5.7,30.17,SE,137,4.0,0.0,9,0.00,,,0.00,0,WeatherHawk,2013-02-11 23:34:00,
2013-02-11 18:39:00,51.1,-5.8,30.17,NW,312,11.0,0.0,9,0.00,,,0.00,0,WeatherHawk,2013-02-11 23:39:00,
2013-02-11 18:44:00,50.9,-3.7,30.17,SSW,202,5.0,0.0,10,0.00,,,0.00,0,WeatherHawk,2013-02-11 23:44:00,
2013-02-11 18:49:00,50.7,0.0,30.17,North,0,6.0,0.0,12,0.00,,,0.00,0,WeatherHawk,2013-02-11 23:49:00,
2013-02-11 18:54:00,50.0,1.1,30.18,WNW,289,3.0,0.0,13,0.00,,,0.00,1,WeatherHawk,2013-02-11 23:54:00,
2013-02-11 18:59:00,50.2,-4.3,30.18,West,270,6.0,0.0,10,0.00,,,0.00,1,WeatherHawk,2013-02-11 23:59:00,
2013-02-11 19:04:00,49.7,2.5,30.18,WSW,238,6.0,0.0,14,0.00,,,0.00,0,WeatherHawk,2013-02-12 00:04:00,
2013-02-11 19:09:00,49.9,-4.5,30.19,WNW,298,5.0,0.0,10,0.00,,,0.00,2,WeatherHawk,2013-02-12 00:09:00,
2013-02-11 19:14:00,49.7,-0.8,30.19,SW,215,9.0,0.0,12,0.00,,,0.00,1,WeatherHawk,2013-02-12 00:14:00,
2013-02-11 19:19:00,49.5,-0.9,30.20,SSW,196,4.0,0.0,12,0.00,,,0.00,0,WeatherHawk,2013-02-12 00:19:00,
2013-02-11 19:24:00,49.7,-2.6,30.20,West,271,9.0,0.0,11,0.00,,,0.00,2,WeatherHawk,2013-02-12 00:24:00,
2013-02-11 19:29:00,49.1,-3.1,30.21,WNW,286,5.0,0.0,11,0.00,,,0.00,0,WeatherHawk,2013-02-12 00:29:00,
2013-02-11 19:34:00,49.3,2.1,30.20,SSW,202,5.0,0.0,14,0.00,,,0.00,2,WeatherHawk,2013-02-12 00:34:00,
2013-02-11 19:39:00,49.0,0.4,30.21,WNW,286,6.0,0.0,13,0.00,,,0.00,0,WeatherHawk,2013-02-12 00:39:00,
2013-02-11 19:44:00,48.5,1.5,30.21,West,271,3.0,0.0,14,0.00,,,0.00,1,WeatherHawk,2013-02-12 00:44:00,
2013-02-11 19:49:00,48.3,1.3,30.22,WSW,252,3.0,0.0,14,0.00,,,0.00,0,WeatherHawk,2013-02-12 00:49:00,
2013-02-11 19:54:00,49.0,4.8,30.21,SW,233,5.0,0.0,16,0.00,,,0.00,1,WeatherHawk,2013-02-12 00:54:00,
2013-02-11 19:59:00,48.4,2.9,30.21,SW,236,5.0,0.0,15,0.00,,,0.00,0,WeatherHawk,2013-02-12 00:59:00,
2013-02-11 20:04:00,48.6,0.0,30.23,WSW,249,5.0,0.0,13,0.00,,,0.00,0,WeatherHawk,2013-02-12 01:04:00,
2013-02-11 20:09:00,48.4,1.5,30.23,SSW,208,4.0,0.0,14,0.00,,,0.00,3,WeatherHawk,2013-02-12 01:09:00,
2013-02-11 20:14:00,48.1,-0.4,30.23,SSW,195,4.0,0.0,13,0.00,,,0.00,0,WeatherHawk,2013-02-12 01:14:00,
2013-02-11 20:19:00,47.9,1.0,30.23,West,277,4.0,0.0,14,0.00,,,0.00,0,WeatherHawk,2013-02-12 01:19:00,
2013-02-11 20:24:00,47.9,1.1,30.23,NW,309,7.0,0.0,14,0.00,,,0.00,1,WeatherHawk,2013-02-12 01:24:00,
2013-02-11 20:29:00,47.9,-0.5,30.25,SW,226,4.0,0.0,13,0.00,,,0.00,0,WeatherHawk,2013-02-12 01:29:00,
2013-02-11 20:34:00,47.7,0.9,30.24,West,260,6.0,0.0,14,0.00,,,0.00,0,WeatherHawk,2013-02-12 01:34:00,
2013-02-11 20:39:00,47.6,0.8,30.25,SW,224,4.0,0.0,14,0.00,,,0.00,0,WeatherHawk,2013-02-12 01:39:00,
2013-02-11 20:44:00,47.4,0.6,30.24,West,277,8.0,0.0,14,0.00,,,0.00,0,WeatherHawk,2013-02-12 01:44:00,
2013-02-11 20:49:00,47.5,2.2,30.25,SW,230,4.0,0.0,15,0.00,,,0.00,1,WeatherHawk,2013-02-12 01:49:00,
2013-02-11 20:54:00,47.0,4.5,30.25,SW,231,4.0,0.0,17,0.00,,,0.00,1,WeatherHawk,2013-02-12 01:54:00,
2013-02-11 20:59:00,47.2,3.4,30.25,SW,230,4.0,0.0,16,0.00,,,0.00,1,WeatherHawk,2013-02-12 01:59:00,
2013-02-11 21:04:00,47.0,5.7,30.26,SW,230,4.0,0.0,18,0.00,,,0.00,0,WeatherHawk,2013-02-12 02:04:00,
2013-02-11 21:09:00,47.3,3.4,30.26,WSW,249,7.0,0.0,16,0.00,,,0.00,0,WeatherHawk,2013-02-12 02:09:00,
2013-02-11 21:14:00,46.4,4.0,30.26,SW,228,3.0,0.0,17,0.00,,,0.00,1,WeatherHawk,2013-02-12 02:14:00,
2013-02-11 21:19:00,46.6,2.9,30.27,WSW,248,4.0,0.0,16,0.00,,,0.00,0,WeatherHawk,2013-02-12 02:19:00,
2013-02-11 21:24:00,46.5,4.1,30.27,WSW,258,2.0,0.0,17,0.00,,,0.00,1,WeatherHawk,2013-02-12 02:24:00,
2013-02-11 21:29:00,46.3,2.6,30.26,North,0,5.0,0.0,16,0.00,,,0.00,0,WeatherHawk,2013-02-12 02:29:00,
2013-02-11 21:34:00,46.3,3.9,30.27,West,263,3.0,0.0,17,0.00,,,0.00,0,WeatherHawk,2013-02-12 02:34:00,
2013-02-11 21:39:00,46.1,6.1,30.27,WSW,247,3.0,0.0,19,0.00,,,0.00,1,WeatherHawk,2013-02-12 02:39:00,
2013-02-11 21:44:00,46.6,7.7,30.27,West,264,5.0,0.0,20,0.00,,,0.00,0,WeatherHawk,2013-02-12 02:44:00,
2013-02-11 21:49:00,45.8,4.7,30.28,South,189,3.0,0.0,18,0.00,,,0.00,0,WeatherHawk,2013-02-12 02:49:00,
2013-02-11 21:54:00,45.7,6.9,30.27,SW,227,5.0,0.0,20,0.00,,,0.00,0,WeatherHawk,2013-02-12 02:54:00,
2013-02-11 21:59:00,45.5,6.8,30.27,WSW,251,3.0,0.0,20,0.00,,,0.00,0,WeatherHawk,2013-02-12 02:59:00,
2013-02-11 22:04:00,45.5,5.7,30.27,WNW,292,2.0,0.0,19,0.00,,,0.00,0,WeatherHawk,2013-02-12 03:04:00,
2013-02-11 22:09:00,45.3,7.7,30.28,WSW,249,2.0,0.0,21,0.00,,,0.00,1,WeatherHawk,2013-02-12 03:09:00,
2013-02-11 22:14:00,45.2,8.7,30.28,WNW,292,2.0,0.0,22,0.00,,,0.00,1,WeatherHawk,2013-02-12 03:14:00,
2013-02-11 22:19:00,45.6,6.8,30.28,WNW,284,6.0,0.0,20,0.00,,,0.00,0,WeatherHawk,2013-02-12 03:19:00,
2013-02-11 22:24:00,45.1,6.4,30.29,West,279,4.0,0.0,20,0.00,,,0.00,0,WeatherHawk,2013-02-12 03:24:00,
2013-02-11 22:29:00,44.6,7.1,30.29,West,263,3.0,0.0,21,0.00,,,0.00,0,WeatherHawk,2013-02-12 03:29:00,
2013-02-11 22:34:00,44.0,7.6,30.30,SW,228,1.0,0.0,22,0.00,,,0.00,0,WeatherHawk,2013-02-12 03:34:00,
2013-02-11 22:39:00,44.6,7.1,30.30,SW,225,1.0,0.0,21,0.00,,,0.00,2,WeatherHawk,2013-02-12 03:39:00,
2013-02-11 22:44:00,44.0,7.7,30.30,SSW,195,3.0,0.0,22,0.00,,,0.00,0,WeatherHawk,2013-02-12 03:44:00,
2013-02-11 22:49:00,44.1,8.7,30.31,WSW,244,0.0,0.0,23,0.00,,,0.00,0,WeatherHawk,2013-02-12 03:49:00,
2013-02-11 22:54:00,43.8,10.3,30.30,WSW,242,2.0,0.0,25,0.00,,,0.00,2,WeatherHawk,2013-02-12 03:54:00,
2013-02-11 22:59:00,42.9,10.4,30.30,WNW,286,0.0,0.0,26,0.00,,,0.00,1,WeatherHawk,2013-02-12 03:59:00,
2013-02-11 23:04:00,42.7,11.9,30.32,West,277,0.0,0.0,28,0.00,,,0.00,0,WeatherHawk,2013-02-12 04:04:00,
2013-02-11 23:09:00,43.6,11.0,30.31,WSW,247,1.0,0.0,26,0.00,,,0.00,0,WeatherHawk,2013-02-12 04:09:00,
2013-02-11 23:14:00,42.9,10.4,30.31,West,262,0.0,0.0,26,0.00,,,0.00,1,WeatherHawk,2013-02-12 04:14:00,
2013-02-11 23:19:00,42.8,10.3,30.31,SW,234,0.0,0.0,26,0.00,,,0.00,2,WeatherHawk,2013-02-12 04:19:00,
2013-02-11 23:24:00,43.0,10.5,30.31,West,259,1.0,0.0,26,0.00,,,0.00,0,WeatherHawk,2013-02-12 04:24:00,
2013-02-11 23:29:00,43.2,10.7,30.31,West,268,4.0,0.0,26,0.00,,,0.00,0,WeatherHawk,2013-02-12 04:29:00,
2013-02-11 23:34:00,43.2,9.8,30.32,WSW,239,4.0,0.0,25,0.00,,,0.00,0,WeatherHawk,2013-02-12 04:34:00,
2013-02-11 23:39:00,42.8,10.3,30.32,SW,228,3.0,0.0,26,0.00,,,0.00,1,WeatherHawk,2013-02-12 04:39:00,
2013-02-11 23:44:00,43.5,10.9,30.32,SW,219,5.0,0.0,26,0.00,,,0.00,1,WeatherHawk,2013-02-12 04:44:00,
2013-02-11 23:49:00,42.5,10.9,30.33,WSW,244,2.0,0.0,27,0.00,,,0.00,0,WeatherHawk,2013-02-12 04:49:00,
2013-02-11 23:54:00,42.2,11.5,30.32,SW,235,3.0,0.0,28,0.00,,,0.00,0,WeatherHawk,2013-02-12 04:54:00,
2013-02-11 23:59:00,42.3,11.5,30.33,SW,227,3.0,0.0,28,0.00,,,0.00,0,WeatherHawk,2013-02-12 04:59:00,